Location: Grasslands National Park East Block
(49.0708°N, 106.5295°W)
Time: 04:32:09
(UTC-06:00)

Vanguard 1 - Pass Details

Date: 30 September 2019
Orbit: 653 x 3830 km, 34.2° (Epoch: 22 October)

Event Time Altitude Azimuth Distance (km) Brightness Sun altitude
Rises 23:38:00 0° 215° (SW) 6,368 - -41.1°
Reaches altitude 10° 23:42:11 10° 208° (SSW) 5,735 - -41.4°
Maximum altitude 23:58:54 38° 148° (SSE) 4,776 - -42.4°
Exits shadow 00:10:44 25° 106° (ESE) 5,727 13.6 -43.0°
Drops below altitude 10° 00:18:47 10° 91° (E) 6,803 14.2 -43.3°
Sets 00:24:17 0° 85° (E) 7,626 14.6 -43.5°
